Location: Newark
(50.9167°N, 3.9500°E)
Time: 22:57:56
(UTC+00:00)

ISS - Visible Passes

Search period start: 19 July 2019 00:00
Search period end: 29 July 2019 00:00
Orbit: 409 x 418 km, 51.6° (Epoch: 20 July)

Date Brightness Start Highest point End Pass type
(mag) Time Alt. Az. Time Alt. Az. Time Alt. Az.
19 Jul -3.8 00:16:36 10° W 00:19:57 86° N 00:23:17 10° E visible
19 Jul -3.2 01:53:24 10° W 01:56:28 35° SSW 01:59:32 10° SE visible
19 Jul -3.9 21:50:32 10° WSW 21:53:53 79° SSE 21:57:13 10° ENE visible
19 Jul -3.7 23:27:17 10° W 23:30:38 78° N 23:33:57 10° E visible
20 Jul -3.7 01:04:01 10° W 01:07:15 49° SSW 01:09:06 22° SE visible
20 Jul-1.202:45:52S02:45:52S02:41:11WSWvisible
20 Jul -3.8 21:01:18 10° WSW 21:04:36 61° SSE 21:07:54 10° ENE visible
20 Jul -3.7 22:37:57 10° W 22:41:17 76° N 22:44:38 10° E visible
21 Jul -3.9 00:14:41 10° WNW 00:18:00 67° SSW 00:18:00 67° SSW visible
21 Jul -3.7 21:48:35 10° W 21:51:57 80° N 21:55:17 10° E visible
21 Jul -3.9 23:25:21 10° WNW 23:28:42 84° SSW 23:29:24 53° ESE visible
22 Jul -3.8 20:59:14 10° WSW 21:02:36 90° WSW 21:05:57 10° E visible
22 Jul -3.8 22:36:00 10° W 22:39:21 83° N 22:41:10 25° E visible
23 Jul -1.8 00:12:46 10° W 00:13:58 19° W 00:13:58 19° W visible
23 Jul -3.7 21:46:38 10° W 21:49:59 77° N 21:53:07 11° E visible
23 Jul -3.2 23:23:22 10° W 23:25:54 42° WSW 23:25:54 42° WSW visible
24 Jul -3.6 20:57:15 10° W 21:00:36 77° N 21:03:56 10° E visible
24 Jul -3.9 22:34:00 10° WNW 22:37:20 72° SSW 22:37:56 54° SE visible
25 Jul -3.9 21:44:37 10° W 21:47:59 88° S 21:50:00 22° ESE visible
25 Jul -1.8 23:21:28 10° W 23:22:49 20° WSW 23:22:49 20° WSW visible
26 Jul -3.7 20:55:13 10° W 20:58:35 81° N 21:01:56 10° E visible
26 Jul -3.2 22:31:58 10° W 22:34:56 42° SW 22:34:56 42° SW visible
27 Jul -3.7 21:42:32 10° W 21:45:51 59° SSW 21:47:04 33° SE visible
28 Jul -3.8 20:53:07 10° WNW 20:56:28 77° SSW 20:59:14 14° ESE visible
28 Jul -2.0 22:30:07 10° W 22:32:03 21° WSW 22:32:03 21° WSW visible
